Weather History for Farmingdale, NY

Change the Weather History Date:

Sunday, January 5, 2014

  Actual Average Record
Temperature  
Mean Temperature 28 °F -  
Max Temperature 46 °F 38 °F 55 °F (2007)
Min Temperature 10 °F 26 °F 10 °F (2014)
Degree Days  
Heating Degree Days 37    
Moisture  
Dew Point 30 °F    
Average Humidity 93    
Maximum Humidity 100    
Minimum Humidity 84    
Precipitation  
Precipitation 0.01 in - - ()
Sea Level Pressure  
Sea Level Pressure 30.19 in    
Wind  
Wind Speed 2 mph (East)    
Max Wind Speed 18 mph    
Max Gust Speed -    
Visibility 5 miles    
Events Fog , Rain    
Averages and records for this station are not official NWS values.
T = Trace of Precipitation, MM = Missing Value Source: NWS Daily Summary

Daily Weather History Graph

Daily Weather History Graph

Search for Another Location

Airport:

Trip Planner

Search our weather history database for the weather conditions in past years. The results will help you decide how hot, cold, wet, or windy it might be!

Date:

Astronomy

Jan. 05, 2014 Rise Set
Actual Time 7:17 AM EST 4:40 PM EST
Civil Twilight 6:47 AM EST 5:11 PM EST
Nautical Twilight 6:13 AM EST 5:45 PM EST
Astronomical Twilight 5:39 AM EST 6:18 PM EST
Moon 9:56 AM EST (1/5) 10:07 PM EST (1/5)
Length of Visible Light 10h 23m
Length of Day
9h 22m
Waxing Crescent, 24% of the Moon is Illuminated
Jan 5
Waxing Crescent
Jan 7
First Quarter
Jan 15
Full
Jan 24
Last Quarter
Jan 30
New

Hourly Weather History & Observations

Time (EST) Temp. Windchill Dew Point Humidity Pressure Visibility Wind Dir Wind Speed Gust Speed Precip Events Conditions
12:53 AM 15.1 °F - 12.0 °F 88% 30.30 in 10.0 mi Calm Calm - N/A   Clear
1:53 AM 10.9 °F - 9.0 °F 92% 30.30 in 10.0 mi Calm Calm - N/A   Clear
2:53 AM 15.1 °F - 10.9 °F 84% 30.31 in 10.0 mi Calm Calm - N/A   Clear
3:53 AM 12.9 °F 6.9 °F 10.0 °F 88% 30.29 in 10.0 mi NNE 3.5 mph - N/A   Clear
4:46 AM 17.6 °F - 14.0 °F 86% 30.29 in 10.0 mi Calm Calm - N/A   Mostly Cloudy
4:53 AM 18.0 °F - 16.0 °F 92% 30.30 in 10.0 mi Calm Calm - N/A   Overcast
5:53 AM 21.9 °F - 18.0 °F 85% 30.30 in 10.0 mi Calm Calm - N/A   Overcast
6:53 AM 26.1 °F - 21.9 °F 84% 30.30 in 9.0 mi Calm Calm - N/A   Overcast
7:25 AM 26.6 °F - 24.8 °F 93% 30.30 in 8.0 mi Calm Calm - N/A   Overcast
7:53 AM 28.0 °F 22.8 °F 24.1 °F 85% 30.32 in 8.0 mi West 4.6 mph - N/A   Overcast
8:16 AM 28.4 °F - 26.6 °F 93% 30.32 in 7.0 mi Calm Calm - N/A   Overcast
8:53 AM 30.0 °F - 27.0 °F 88% 30.33 in 4.0 mi Calm Calm - 0.00 in Rain Light Freezing Rain
9:42 AM 30.2 °F - 28.4 °F 93% 30.33 in 5.0 mi Calm Calm - 0.00 in   Overcast
9:53 AM 30.9 °F - 28.0 °F 89% 30.33 in 6.0 mi Calm Calm - 0.00 in   Overcast
10:02 AM 30.2 °F - 28.4 °F 93% 30.32 in 2.5 mi Calm Calm - 0.00 in Rain Light Freezing Rain
10:53 AM 32.0 °F - 28.9 °F 88% 30.30 in 2.5 mi Calm Calm - 0.01 in   Overcast
11:06 AM 30.2 °F - 30.2 °F 100% 30.29 in 2.0 mi Calm Calm - 0.00 in Rain Light Freezing Rain
11:21 AM 32.0 °F - 30.2 °F 93% 30.28 in 2.0 mi Calm Calm - 0.00 in   Overcast
11:29 AM 32.0 °F - 30.2 °F 93% 30.28 in 2.0 mi Calm Calm - 0.00 in Rain Light Freezing Rain
11:45 AM 32.0 °F - 30.2 °F 93% 30.26 in 3.0 mi Calm Calm - 0.00 in Rain Light Freezing Rain
11:53 AM 32.0 °F 28.7 °F 30.9 °F 96% 30.26 in 2.5 mi NNE 3.5 mph - 0.00 in   Overcast
12:06 PM 32.0 °F - 30.2 °F 93% 30.25 in 2.5 mi Calm Calm - N/A   Overcast
12:13 PM 33.8 °F 30.8 °F 30.2 °F 87% 30.25 in 3.0 mi NNE 3.5 mph - N/A   Overcast
12:53 PM 33.1 °F 30.0 °F 30.9 °F 92% 30.23 in 3.0 mi ENE 3.5 mph - N/A   Overcast
1:53 PM 34.0 °F 31.0 °F 33.1 °F 96% 30.21 in 3.0 mi East 3.5 mph - N/A   Overcast
2:53 PM 35.1 °F 32.2 °F 33.1 °F 92% 30.19 in 3.0 mi NE 3.5 mph - N/A   Overcast
3:53 PM 35.1 °F 32.2 °F 33.1 °F 92% 30.17 in 3.0 mi NNE 3.5 mph - N/A   Overcast
4:53 PM 35.1 °F 30.1 °F 33.1 °F 92% 30.14 in 7.0 mi ENE 5.8 mph - N/A   Overcast
5:32 PM 35.6 °F 30.7 °F 33.8 °F 93% 30.12 in 7.0 mi East 5.8 mph - N/A   Overcast
5:53 PM 37.0 °F 33.3 °F 34.0 °F 89% 30.11 in 8.0 mi ENE 4.6 mph - N/A   Overcast
6:53 PM 37.0 °F 32.4 °F 35.1 °F 93% 30.08 in 7.0 mi ENE 5.8 mph - N/A   Overcast
7:18 PM 37.4 °F 33.8 °F 35.6 °F 93% 30.06 in 7.0 mi East 4.6 mph - N/A   Overcast
7:53 PM 39.0 °F 35.7 °F 37.9 °F 96% 30.02 in 4.0 mi East 4.6 mph - N/A   Overcast
8:04 PM 39.2 °F 35.0 °F 39.2 °F 100% 30.01 in 2.5 mi East 5.8 mph - N/A   Overcast
8:17 PM 39.2 °F 34.2 °F 39.2 °F 100% 30.00 in 1.5 mi East 6.9 mph - N/A   Overcast
8:35 PM 39.2 °F 35.9 °F 39.2 °F 100% 30.00 in 0.5 mi East 4.6 mph - N/A Fog Fog
8:48 PM 41.0 °F 35.8 °F 41.0 °F 100% 29.98 in 0.2 mi ESE 8.1 mph - N/A Fog Fog
8:53 PM 44.1 °F 39.0 °F 43.0 °F 96% 29.99 in 0.2 mi SE 9.2 mph - N/A Fog Fog
9:53 PM 44.1 °F 37.4 °F 44.1 °F 100% 29.94 in 0.2 mi SSE 13.8 mph - N/A Fog Fog
10:53 PM 46.0 °F 39.9 °F 46.0 °F 100% 29.86 in 0.2 mi SE 13.8 mph - N/A Fog Fog
11:53 PM 46.9 °F - 46.9 °F 100% 29.81 in 0.2 mi SSE 18.4 mph - N/A Fog Fog